When you browse on this site, cookies collect data to enhance your experience and personalize the content and advertising you see.
Visit our Privacy Policy to learn more. By continuing to use the site, you agree to this use of cookies and data.
  • In Lithuania
  • List of Countries
  • For 7 days
  • Water Temperature
  • Satellite Maps
  • Weather Map
  • Weather Widgets
  • user-avatar
    Login

    Hourly Weather Sofievka

    Today, 23 February, Saturday

    Time Temperature Precipitation Wind Pressure Humidity
    00:00 -14°C° 0 mm 2 mps 757 mmHg 91%
    01:00 -14°C° 0 mm 2 mps 757 mmHg 92%
    02:00 -15°C° 0 mm 2 mps 757 mmHg 94%
    03:00 -15°C° 0 mm 2 mps 757 mmHg 93%
    04:00 -14°C° 0 mm 2 mps 756 mmHg 92%
    05:00 -14°C° 0 mm 2 mps 756 mmHg 91%
    06:00 -14°C° 0 mm 3 mps 756 mmHg 86%
    07:00 -13°C° 0 mm 3 mps 755 mmHg 81%
    08:00 -12°C° 0 mm 4 mps 755 mmHg 75%
    09:00 -11°C° 0.1 mm 4 mps 754 mmHg 79%
    10:00 -11°C° 0.1 mm 5 mps 754 mmHg 82%
    11:00 -11°C° 0.1 mm 5 mps 753 mmHg 86%
    12:00 -11°C° 0.8 mm 5 mps 752 mmHg 88%
    13:00 -10°C° 0.8 mm 5 mps 751 mmHg 90%
    14:00 -10°C° 0.8 mm 5 mps 750 mmHg 92%
    15:00 -10°C° 0.5 mm 5 mps 750 mmHg 92%
    16:00 -8°C° 0.5 mm 5 mps 749 mmHg 92%
    17:00 -8°C° 0.5 mm 5 mps 749 mmHg 92%
    18:00 -7°C° 0.5 mm 4 mps 748 mmHg 93%
    19:00 -5°C° 0.5 mm 4 mps 748 mmHg 94%
    20:00 -4°C° 0.5 mm 4 mps 748 mmHg 95%
    21:00 -3°C° 0.2 mm 4 mps 748 mmHg 95%
    22:00 -2°C° 0.2 mm 4 mps 748 mmHg 95%
    23:00 -2°C° 0.2 mm 4 mps 748 mmHg 95%

    Tomorrow, 24 February, Sunday

    Time Temperature Precipitation Wind Pressure Humidity
    00:00 -2°C° 0 mm 4 mps 748 mmHg 95%
    01:00 0°C° 0 mm 3 mps 748 mmHg 96%
    02:00 0°C° 0 mm 3 mps 748 mmHg 96%
    03:00 0°C° 0 mm 3 mps 748 mmHg 96%
    04:00 0°C° 0 mm 3 mps 748 mmHg 97%
    05:00 0°C° 0 mm 3 mps 748 mmHg 97%
    06:00 0°C° 0 mm 3 mps 748 mmHg 97%
    07:00 0°C° 0 mm 3 mps 748 mmHg 97%
    08:00 +1°C° 0 mm 2 mps 748 mmHg 97%
    09:00 0°C° 0 mm 3 mps 748 mmHg 98%
    10:00 0°C° 0 mm 3 mps 748 mmHg 98%
    11:00 0°C° 0 mm 3 mps 748 mmHg 99%
    12:00 0°C° 0 mm 3 mps 748 mmHg 99%
    13:00 0°C° 0 mm 3 mps 748 mmHg 99%
    14:00 0°C° 0 mm 3 mps 747 mmHg 99%
    15:00 0°C° 0 mm 3 mps 747 mmHg 98%
    16:00 0°C° 0 mm 3 mps 746 mmHg 97%
    17:00 0°C° 0 mm 3 mps 746 mmHg 96%
    18:00 -1°C° 0 mm 4 mps 745 mmHg 96%
    19:00 -1°C° 0 mm 4 mps 745 mmHg 97%
    20:00 -1°C° 0 mm 5 mps 744 mmHg 97%
    21:00 -1°C° 0.1 mm 5 mps 743 mmHg 95%
    22:00 -1°C° 0.1 mm 5 mps 743 mmHg 93%
    23:00 -1°C° 0.1 mm 5 mps 742 mmHg 92%

    Day after tomorrow, 25 February, Monday

    Time Temperature Precipitation Wind Pressure Humidity
    00:00 -1°C° 0.1 mm 5 mps 742 mmHg 92%
    01:00 -1°C° 0.1 mm 5 mps 742 mmHg 93%
    02:00 -1°C° 0.1 mm 5 mps 742 mmHg 93%
    03:00 -1°C° 0 mm 5 mps 741 mmHg 92%
    04:00 -1°C° 0 mm 5 mps 741 mmHg 91%
    05:00 -1°C° 0 mm 5 mps 741 mmHg 90%
    06:00 -2°C° 0.1 mm 5 mps 740 mmHg 89%
    07:00 -2°C° 0.1 mm 5 mps 740 mmHg 89%
    08:00 -2°C° 0.1 mm 5 mps 739 mmHg 89%
    09:00 -2°C° 0.3 mm 5 mps 739 mmHg 88%
    10:00 -2°C° 0.3 mm 5 mps 739 mmHg 88%
    11:00 -2°C° 0.3 mm 6 mps 738 mmHg 88%
    12:00 -1°C° 0.3 mm 5 mps 738 mmHg 88%
    13:00 -1°C° 0.3 mm 5 mps 737 mmHg 88%
    14:00 -1°C° 0.3 mm 5 mps 737 mmHg 89%
    15:00 -1°C° 0.3 mm 5 mps 737 mmHg 89%
    16:00 -1°C° 0.3 mm 5 mps 737 mmHg 89%
    17:00 -1°C° 0.3 mm 5 mps 737 mmHg 89%
    18:00 -1°C° 0.2 mm 5 mps 737 mmHg 89%
    19:00 -1°C° 0.2 mm 5 mps 737 mmHg 88%
    20:00 -2°C° 0.2 mm 6 mps 738 mmHg 87%
    21:00 -1°C° 0 mm 5 mps 738 mmHg 88%
    22:00 -1°C° 0 mm 5 mps 738 mmHg 89%
    23:00 -2°C° 0 mm 4 mps 738 mmHg 90%

    26 February, Tuesday

    Time Temperature Precipitation Wind Pressure Humidity
    00:00 -2°C° 0.1 mm 4 mps 738 mmHg 90%
    01:00 -2°C° 0.1 mm 4 mps 738 mmHg 91%
    02:00 -2°C° 0.1 mm 4 mps 738 mmHg 91%
    03:00 -2°C° 0.3 mm 4 mps 737 mmHg 92%
    04:00 -3°C° 0.3 mm 4 mps 737 mmHg 93%
    05:00 -2°C° 0.3 mm 3 mps 736 mmHg 94%
    06:00 -3°C° 0.3 mm 4 mps 736 mmHg 93%
    07:00 -3°C° 0.3 mm 4 mps 736 mmHg 92%
    08:00 -2°C° 0.3 mm 4 mps 736 mmHg 92%
    09:00 -2°C° 0.1 mm 4 mps 736 mmHg 90%
    10:00 -2°C° 0.1 mm 4 mps 736 mmHg 88%
    11:00 -2°C° 0.1 mm 4 mps 736 mmHg 87%
    12:00 -2°C° 0.1 mm 4 mps 737 mmHg 85%
    13:00 -2°C° 0.1 mm 4 mps 737 mmHg 84%
    14:00 -2°C° 0.1 mm 4 mps 737 mmHg 83%
    15:00 -3°C° 0 mm 4 mps 738 mmHg 84%
    16:00 -3°C° 0 mm 4 mps 738 mmHg 86%
    17:00 -4°C° 0 mm 4 mps 739 mmHg 87%
    18:00 -4°C° 0 mm 3 mps 740 mmHg 87%
    19:00 -4°C° 0 mm 3 mps 740 mmHg 88%
    20:00 -5°C° 0 mm 3 mps 741 mmHg 89%
    21:00 -6°C° 0 mm 3 mps 741 mmHg 90%
    22:00 -7°C° 0 mm 3 mps 741 mmHg 91%
    23:00 -7°C° 0 mm 2 mps 742 mmHg 92%

    27 February, Wednesday

    Time Temperature Precipitation Wind Pressure Humidity
    00:00 -8°C° 0 mm 2 mps 742 mmHg 93%
    01:00 -9°C° 0 mm 2 mps 742 mmHg 94%
    02:00 -10°C° 0 mm 2 mps 742 mmHg 94%
    03:00 -10°C° 0 mm 2 mps 742 mmHg 95%
    04:00 -12°C° 0 mm 2 mps 742 mmHg 95%
    05:00 -10°C° 0 mm 1 mps 742 mmHg 95%
    06:00 -10°C° 0 mm 1 mps 742 mmHg 95%
    07:00 -9°C° 0 mm 1 mps 741 mmHg 94%
    08:00 -9°C° 0 mm 1 mps 741 mmHg 93%
    09:00 -8°C° 0 mm 2 mps 740 mmHg 91%
    10:00 -7°C° 0 mm 2 mps 739 mmHg 89%
    11:00 -7°C° 0 mm 3 mps 738 mmHg 87%
    12:00 -6°C° 0.2 mm 3 mps 738 mmHg 89%
    13:00 -5°C° 0.2 mm 4 mps 737 mmHg 90%
    14:00 -4°C° 0.2 mm 4 mps 736 mmHg 91%
    15:00 -3°C° 0.1 mm 4 mps 735 mmHg 91%
    16:00 -3°C° 0.1 mm 4 mps 735 mmHg 90%
    17:00 -2°C° 0.1 mm 4 mps 734 mmHg 90%
    18:00 -2°C° 0 mm 4 mps 734 mmHg 90%
    19:00 -2°C° 0 mm 4 mps 734 mmHg 91%
    20:00 -2°C° 0 mm 4 mps 734 mmHg 91%
    21:00 -2°C° 0.1 mm 4 mps 733 mmHg 91%
    22:00 -2°C° 0.1 mm 4 mps 733 mmHg 92%
    23:00 -3°C° 0.1 mm 4 mps 732 mmHg 93%

    28 February, Thursday

    Time Temperature Precipitation Wind Pressure Humidity
    00:00 -2°C° 0.1 mm 4 mps 732 mmHg 93%
    01:00 -2°C° 0.1 mm 4 mps 731 mmHg 93%
    02:00 -2°C° 0.1 mm 4 mps 731 mmHg 93%
    03:00 -2°C° 0 mm 4 mps 730 mmHg 93%
    04:00 -2°C° 0 mm 4 mps 730 mmHg 92%
    05:00 -2°C° 0 mm 4 mps 729 mmHg 92%
    06:00 -3°C° 0 mm 4 mps 729 mmHg 93%
    07:00 -3°C° 0 mm 4 mps 728 mmHg 93%
    08:00 -4°C° 0 mm 4 mps 728 mmHg 93%
    09:00 -3°C° 0 mm 4 mps 727 mmHg 93%
    10:00 -3°C° 0 mm 4 mps 726 mmHg 92%
    11:00 -2°C° 0 mm 4 mps 725 mmHg 91%
    12:00 -2°C° 0 mm 4 mps 724 mmHg 92%
    13:00 -2°C° 0 mm 4 mps 723 mmHg 93%
    14:00 -1°C° 0 mm 4 mps 722 mmHg 94%
    15:00 -1°C° 0.7 mm 4 mps 722 mmHg 93%
    16:00 0°C° 0.7 mm 3 mps 721 mmHg 93%
    17:00 0°C° 0.7 mm 3 mps 720 mmHg 92%
    18:00 -1°C° 0.4 mm 3 mps 719 mmHg 93%
    19:00 -1°C° 0.4 mm 3 mps 719 mmHg 93%
    20:00 -1°C° 0.4 mm 3 mps 718 mmHg 93%
    21:00 -1°C° 0.1 mm 3 mps 718 mmHg 93%
    22:00 -1°C° 0.1 mm 3 mps 718 mmHg 94%
    23:00 -1°C° 0.1 mm 3 mps 717 mmHg 94%
    Show more